This is the latest recevied weather packets stored in our database for station/object KC8JWT. If no packets are shown the sender has not sent any weather packets the latest 10 day(s).
| Time | Temp. | Humidity | Pressure | Rain* | Wind** | Luminosity | Snow |
|---|---|---|---|---|---|---|---|
| 1777576623 | 12.78° C | 82% | 1015.1 hPa | 0 mm | - | 570 W/m² | - |
| 1777576317 | 12.22° C | 79% | 1015.2 hPa | 0 mm | - | 416 W/m² | - |
| 1777576014 | 12.78° C | 80% | 1015.2 hPa | 0 mm | - | 371 W/m² | - |
| 1777575710 | 12.22° C | 84% | 1015.1 hPa | 0 mm | - | 568 W/m² | - |
| 1777575406 | 11.11° C | 86% | 1015.2 hPa | 0 mm | - | 429 W/m² | - |
| 1777575102 | 10.56° C | 87% | 1015.1 hPa | 0 mm | - | 377 W/m² | - |
| 1777574798 | 10° C | 88% | 1015.3 hPa | 1.27 mm | - | 298 W/m² | - |
| 1777574496 | 10° C | 87% | 1015.6 hPa | 0 mm | - | 198 W/m² | - |
| 1777574192 | 10.56° C | 85% | 1015.7 hPa | 0 mm | - | 127 W/m² | - |
| 1777573888 | 12.22° C | 82% | 1015.5 hPa | 0 mm | - | 63 W/m² | - |
| 1777573588 | 13.33° C | 79% | 1015.2 hPa | 0 mm | - | 187 W/m² | - |
| 1777573285 | 13.89° C | 81% | 1015.2 hPa | 0 mm | - | 648 W/m² | - |
| 1777572981 | 12.78° C | 80% | 1014.9 hPa | 0 mm | - | 629 W/m² | - |
| 1777572676 | 12.22° C | 79% | 1015 hPa | 0 mm | - | 337 W/m² | - |
| 1777572371 | 12.22° C | 81% | 1015.1 hPa | 0 mm | - | 339 W/m² | - |
| 1777572068 | 12.22° C | 84% | 1015.1 hPa | 0 mm | - | 355 W/m² | - |
| 1777571768 | 12.78° C | 82% | 1015.2 hPa | 0 mm | - | 342 W/m² | - |
| 1777571465 | 13.33° C | 80% | 1015 hPa | 0 mm | - | 207 W/m² | - |
| 1777571161 | 12.78° C | 85% | 1015.1 hPa | 0 mm | - | 363 W/m² | - |
| 1777570857 | 13.33° C | 83% | 1015.2 hPa | 0 mm | - | 384 W/m² | - |
| 1777570553 | 13.33° C | 81% | 1015.2 hPa | 0 mm | - | 494 W/m² | - |
| 1777570250 | 12.78° C | 79% | 1015.1 hPa | 0 mm | - | 353 W/m² | - |
| 1777569945 | 12.22° C | 81% | 1015.2 hPa | 0 mm | - | 433 W/m² | - |
| 1777569641 | 12.78° C | 79% | 1015.1 hPa | 0 mm | - | 323 W/m² | - |
| 1777569338 | 12.78° C | 79% | 1014.9 hPa | 0 mm | - | 273 W/m² | - |
* Rain latest hour (hover to see other rain measurements)
** Current wind speed in m/s (hover to see current wind gust speed)